Location: Bonningues
(50.7927°N, 2.0150°E)
Time: 09:42:58
(UTC+00:00)

Cosmos 1271 Rocket - Pass Details

Date: 08 August 2020
Orbit: 499 x 545 km, 81.2° (Epoch: 20 September)

Event Time Altitude Azimuth Distance (km) Brightness Sun altitude
Rises 22:35:10 0° 356° (N) 2,611 7.6 -21.0°
Reaches altitude 10° 22:37:33 10° 10° (N) 1,726 6.2 -21.1°
Maximum altitude 22:40:46 26° 68° (ENE) 1,036 4.2 -21.3°
Enters shadow 22:41:02 26° 75° (ENE) 1,042 4.1 -21.3°
